FW0954 Weather Reports


time (UTC)temp
C
wind
direction
speed
KPH
gust
KPH
rain 1hr
cm
rain 24hr
cm
rain mn
cm
humidity
%
barometer
mb
20260506212502 16 97 0.0 3.2 0.00 0.10 0.00 80 1013.4
20260506211502 16 119 0.0 3.2 0.00 0.10 0.00 80 1013.5
20260506211002 16 113 0.0 3.2 0.00 0.10 0.00 79 1013.5
20260506210002 16 322 0.0 3.2 0.00 0.10 0.00 80 1013.5
20260506205002 16 79 1.6 3.2 0.00 0.10 0.00 79 1013.9
20260506204503 16 80 1.6 6.4 0.00 0.10 0.00 79 1013.7
20260506204002 16 96 0.0 6.4 0.00 0.10 0.00 79 1013.8
20260506203502 16 347 1.6 4.8 0.00 0.10 0.00 80 1013.8
20260506203002 16 283 1.6 4.8 0.00 0.10 0.00 79 1013.8
20260506200503 16 230 0.0 3.2 0.00 0.10 0.00 81 1014.4
20260506200003 16 278 0.0 3.2 0.00 0.10 0.00 80 1014.5
20260506195002 16 320 1.6 6.4 0.00 0.10 0.00 80 1014.4
20260506194502 16 8 1.6 6.4 0.00 0.10 0.00 81 1014.1
20260506194002 15 45 1.6 3.2 0.00 0.10 0.00 82 1013.7
20260506193502 15 110 0.0 3.2 0.00 0.10 0.00 84 1013.7
20260506193003 15 124 0.0 3.2 0.00 0.10 0.00 84 1013.9
20260506192502 14 140 0.0 3.2 0.00 0.10 0.00 84 1014.2
20260506192002 14 61 1.6 6.4 0.00 0.10 0.00 83 1014.7
20260506191502 14 352 1.6 6.4 0.00 0.10 0.00 83 1014.9
20260506191002 15 265 0.0 3.2 0.00 0.10 0.00 83 1014.8
20260506190502 15 264 0.0 3.2 0.00 0.10 0.00 83 1014.4
20260506185502 15 274 0.0 1.6 0.00 0.10 0.00 83 1014.1
20260506185002 15 272 0.0 1.6 0.00 0.10 0.00 82 1014.2
20260506184002 15 124 0.0 12.9 0.00 0.10 0.00 83 1014.2
20260506183503 15 112 0.0 3.2 0.00 0.10 0.00 84 1014.1
20260506183002 15 159 1.6 4.8 0.00 0.10 0.00 83 1014.2
20260506182502 14 79 1.6 6.4 0.00 0.10 0.00 83 1013.8
20260506181502 14 13 1.6 4.8 0.00 0.10 0.00 84 1013.4
20260506181003 14 22 1.6 6.4 0.00 0.10 0.00 85 1012.9
20260506180502 14 26 1.6 6.4 0.00 0.10 0.00 85 1012.9
20260506180002 14 25 3.2 8.0 0.00 0.10 0.00 85 1012.8
20260506175002 14 53 1.6 4.8 0.00 0.10 0.00 85 1012.9
20260506174502 14 48 1.6 4.8 0.00 0.10 0.00 85 1013.3
20260506173503 13 66 1.6 6.4 0.00 0.10 0.00 85 1013.6
20260506173003 13 91 1.6 4.8 0.00 0.10 0.00 86 1013.8
20260506172502 13 98 0.0 4.8 0.00 0.10 0.00 86 1014.3
20260506172002 13 83 0.0 3.2 0.00 0.10 0.00 86 1014.9
20260506171502 13 73 1.6 3.2 0.00 0.10 0.00 85 1014.7
20260506171003 13 201 1.6 4.8 0.00 0.10 0.00 85 1014.8
20260506170502 13 227 1.6 4.8 0.00 0.10 0.00 85 1014.8
20260506170003 13 60 1.6 4.8 0.00 0.10 0.00 85 1014.3
20260506165502 14 54 1.6 4.8 0.00 0.10 0.00 84 1013.4
20260506165003 14 59 1.6 4.8 0.00 0.10 0.00 83 1013.7
20260506164502 14 79 1.6 4.8 0.00 0.10 0.00 83 1014.0
20260506164003 15 60 1.6 6.4 0.00 0.10 0.00 83 1014.1
20260506163502 15 35 1.6 8.0 0.00 0.10 0.00 83 1014.2
20260506163002 15 67 1.6 8.0 0.00 0.10 0.00 85 1014.2
20260506162503 14 24 1.6 6.4 0.00 0.10 0.00 85 1014.1
20260506162002 14 344 0.0 4.8 0.00 0.10 0.00 87 1014.3
20260506161502 13 22 0.0 6.4 0.00 0.10 0.00 87 1014.4
20260506160502 13 111 0.0 1.6 0.00 0.10 0.00 88 1014.5
20260506160003 13 111 0.0 1.6 0.00 0.10 0.00 88 1014.9
20260506155502 13 111 0.0 1.6 0.00 0.10 0.00 87 1014.6
20260506155003 13 117 0.0 6.4 0.00 0.10 0.00 87 1014.8
20260506153002 13 278 1.6 4.8 0.00 0.10 0.00 83 1014.9
20260506152002 13 308 1.6 8.0 0.00 0.10 0.00 83 1016.2
20260506151002 13 80 0.0 3.2 0.00 0.10 0.00 84 1015.1
20260506150502 13 36 1.6 4.8 0.00 0.10 0.00 84 1014.6
20260506145502 13 80 0.0 3.2 0.00 0.10 0.00 84 1014.5
20260506145003 13 18 1.6 3.2 0.00 0.10 0.00 84 1014.5
20260506144502 13 6 1.6 4.8 0.00 0.10 0.00 84 1014.5
20260506144002 13 21 1.6 4.8 0.00 0.10 0.00 84 1014.1
20260506143003 13 44 0.0 3.2 0.00 0.10 0.00 83 1014.5
20260506142503 13 24 0.0 3.2 0.00 0.10 0.00 84 1014.1
20260506142002 12 4 1.6 4.8 0.00 0.10 0.00 83 1014.1
20260506141503 13 8 1.6 4.8 0.00 0.10 0.00 84 1014.1
20260506140503 12 24 1.6 3.2 0.00 0.10 0.00 84 1013.9
20260506140003 13 43 0.0 3.2 0.00 0.10 0.00 84 1013.7
20260506135503 13 40 0.0 3.2 0.00 0.10 0.00 84 1013.7
20260506134503 12 54 1.6 4.8 0.00 0.10 0.00 84 1013.8
20260506133502 13 41 1.6 3.2 0.00 0.10 0.00 85 1013.7
20260506132502 13 296 0.0 3.2 0.00 0.10 0.00 84 1013.4
20260506132003 13 293 1.6 3.2 0.00 0.10 0.00 84 1013.2
20260506131502 13 330 1.6 3.2 0.00 0.10 0.00 84 1013.2
20260506131003 13 46 1.6 3.2 0.00 0.10 0.00 84 1013.4
20260506130503 13 37 1.6 4.8 0.00 0.10 0.00 83 1013.5
20260506130003 13 63 0.0 4.8 0.00 0.10 0.00 84 1013.3
20260506125503 13 159 0.0 3.2 0.00 0.10 0.00 83 1013.3
20260506125003 13 159 0.0 3.2 0.00 0.10 0.00 83 1013.1
20260506124503 13 160 0.0 3.2 0.00 0.10 0.00 83 1013.0
20260506122002 13 40 1.6 4.8 0.00 0.10 0.00 81 1012.8
20260506121502 13 359 1.6 4.8 0.00 0.10 0.00 81 1012.8
20260506120503 13 35 1.6 6.4 0.00 0.10 0.00 81 1012.7
20260506120002 13 28 1.6 6.4 0.00 0.10 0.00 80 1012.6
20260506115503 13 29 1.6 3.2 0.00 0.10 0.00 80 1012.4
20260506115003 13 39 1.6 4.8 0.00 0.10 0.00 80 1012.3
20260506114502 13 61 0.0 4.8 0.00 0.10 0.00 80 1012.1
20260506114003 13 55 1.6 3.2 0.00 0.10 0.00 80 1012.0
20260506113503 13 47 1.6 6.4 0.00 0.10 0.00 80 1011.8
20260506113003 13 39 1.6 6.4 0.00 0.10 0.00 79 1011.8
20260506112503 13 21 1.6 6.4 0.00 0.10 0.00 79 1012.1
20260506111003 14 68 1.6 3.2 0.00 0.10 0.00 79 1011.7
20260506110503 14 45 0.0 3.2 0.00 0.10 0.00 78 1011.7
20260506110004 14 2 1.6 3.2 0.00 0.10 0.00 78 1011.5
20260506105503 14 11 1.6 3.2 0.00 0.10 0.00 78 1011.5
20260506105003 14 56 0.0 3.2 0.00 0.10 0.00 78 1011.3
20260506104503 14 97 0.0 3.2 0.00 0.10 0.00 78 1011.2
20260506103004 14 336 1.6 3.2 0.00 0.10 0.00 78 1011.0
20260506102503 14 283 0.0 3.2 0.00 0.10 0.00 78 1010.8
20260506102002 14 280 0.0 3.2 0.00 0.10 0.00 78 1010.6
20260506101503 15 325 1.6 3.2 0.00 0.10 0.00 78 1010.6
20260506101003 15 60 0.0 3.2 0.00 0.10 0.00 78 1010.4
20260506100503 15 47 0.0 3.2 0.00 0.10 0.00 78 1010.5
20260506100004 15 11 0.0 3.2 0.00 0.10 0.00 78 1010.5
20260506095503 15 325 0.0 3.2 0.00 0.10 0.00 78 1010.6
20260506094503 15 43 0.0 3.2 0.00 0.10 0.00 77 1010.4
20260506094003 15 56 0.0 6.4 0.00 0.10 0.00 77 1010.4
20260506093503 15 221 0.0 6.4 0.00 0.10 0.00 78 1010.5
20260506093003 15 225 0.0 1.6 0.00 0.10 0.00 78 1010.5
20260506092503 15 224 0.0 1.6 0.00 0.10 0.00 78 1010.4
20260506091503 15 238 0.0 1.6 0.00 0.10 0.00 78 1010.3
20260506090003 15 109 0.0 1.6 0.00 0.10 0.00 78 1010.1
20260506085503 15 108 0.0 1.6 0.00 0.10 0.00 78 1010.0
20260506085003 15 108 0.0 1.6 0.00 0.10 0.00 79 1009.9
20260506084503 15 108 0.0 1.6 0.00 0.10 0.00 79 1009.9
20260506084003 15 108 0.0 1.6 0.00 0.10 0.00 78 1010.0
20260506083503 15 0 0.0 0.0 0.00 0.10 0.00 79 1009.7
20260506083003 15 108 0.0 1.6 0.00 0.10 0.00 79 1009.5
20260506082502 15 109 0.0 1.6 0.00 0.10 0.00 79 1009.4
20260506081504 15 138 0.0 3.2 0.00 0.10 0.00 79 1009.4
20260506081003 15 79 0.0 4.8 0.00 0.10 0.00 79 1009.5
20260506080503 16 65 0.0 4.8 0.00 0.10 0.00 79 1009.6
20260506073504 16 102 0.0 3.2 0.00 0.10 0.00 79 1009.8
20260506073003 16 102 0.0 3.2 0.00 0.10 0.00 79 1009.8
20260506072503 16 108 0.0 3.2 0.00 0.10 0.00 80 1009.7
20260506072003 16 94 0.0 3.2 0.00 0.10 0.00 80 1009.7
20260506071503 16 88 0.0 1.6 0.00 0.10 0.00 80 1009.8
20260506071003 16 81 0.0 3.2 0.00 0.10 0.00 80 1009.7
20260506070503 16 86 0.0 3.2 0.00 0.10 0.00 80 1009.7
20260506062504 17 356 0.0 3.2 0.00 0.10 0.00 80 1009.5
20260506062004 17 326 0.0 1.6 0.00 0.10 0.00 80 1009.5
20260506061503 17 348 0.0 4.8 0.00 0.10 0.00 80 1009.4
20260506061004 17 301 0.0 4.8 0.00 0.10 0.00 80 1009.5
20260506060503 17 243 0.0 4.8 0.00 0.10 0.00 80 1009.4
20260506051004 19 258 0.0 3.2 0.00 0.10 0.00 79 1009.1
20260506050503 19 287 0.0 1.6 0.00 0.10 0.00 79 1009.2
20260506045003 20 90 0.0 4.8 0.00 0.10 0.10 79 1009.1
20260506044501 20 227 0.0 4.8 0.00 0.10 0.10 79 1009.0
20260506043002 20 39 0.0 3.2 0.00 0.10 0.10 79 1008.7
20260506042501 21 42 0.0 3.2 0.00 0.10 0.10 79 1008.8
20260506042001 21 18 0.0 4.8 0.00 0.10 0.10 79 1008.6
20260506041501 21 23 0.0 4.8 0.00 0.10 0.10 79 1008.5
20260506040501 21 22 0.0 1.6 0.00 0.10 0.10 79 1008.5
20260506040001 21 23 0.0 3.2 0.00 0.10 0.10 79 1008.5
20260506035501 21 15 0.0 3.2 0.00 0.10 0.10 78 1008.5
20260506035001 21 28 1.6 9.7 0.00 0.10 0.10 78 1008.4
20260506034501 21 48 0.0 9.7 0.00 0.10 0.10 78 1008.3
20260506034001 22 51 0.0 1.6 0.00 0.10 0.10 78 1008.2
20260506033501 22 47 0.0 4.8 0.00 0.10 0.10 79 1008.1
20260506033001 22 50 0.0 4.8 0.00 0.10 0.10 79 1008.2
20260506032502 22 67 0.0 4.8 0.00 0.10 0.10 79 1008.0
20260506032001 22 44 1.6 4.8 0.00 0.10 0.10 78 1008.0
20260506031501 22 29 1.6 4.8 0.00 0.10 0.10 78 1008.1
20260506031001 23 29 1.6 4.8 0.00 0.10 0.10 78 1007.9
20260506030501 23 61 1.6 3.2 0.00 0.10 0.10 79 1007.7
20260506030002 23 94 0.0 3.2 0.00 0.10 0.10 79 1007.5
20260506025001 22 87 0.0 3.2 0.00 0.10 0.10 80 1007.2
20260506024502 22 100 0.0 3.2 0.00 0.10 0.10 81 1007.2
20260506024001 22 77 0.0 1.6 0.00 0.10 0.10 81 1006.7
20260506023502 22 12 0.0 1.6 0.00 0.10 0.10 82 1006.5
20260506023001 22 12 0.0 1.6 0.00 0.10 0.10 82 1006.4
20260506022502 22 348 0.0 1.6 0.00 0.10 0.10 84 1006.2
20260506022001 22 71 0.0 1.6 0.00 0.10 0.10 83 1006.1
20260506021502 22 129 0.0 3.2 0.00 0.10 0.10 84 1006.1
20260506021001 22 130 0.0 3.2 0.00 0.10 0.10 83 1006.2
20260506020501 22 130 0.0 1.6 0.00 0.10 0.10 83 1006.2
20260506015501 23 131 0.0 3.2 0.00 0.10 0.10 83 1006.1
20260506015001 23 132 0.0 4.8 0.00 0.10 0.10 85 1005.9
20260506014501 24 136 0.0 4.8 0.00 0.10 0.10 82 1005.5
20260506014002 25 208 0.0 1.6 0.00 0.10 0.10 82 1005.6
20260506013502 25 208 0.0 1.6 0.05 0.10 0.10 86 1005.6
20260506013001 26 208 0.0 1.6 0.05 0.10 0.10 86 1005.8
20260506012502 26 208 0.0 3.2 0.08 0.10 0.10 86 1005.9
20260506012002 26 208 0.0 3.2 0.10 0.10 0.10 85 1005.5
20260506011502 26 198 3.2 14.5 0.10 0.10 0.10 84 1005.1
20260506011001 26 195 3.2 14.5 0.10 0.10 0.10 85 1005.1
20260506010502 26 193 1.6 9.7 0.10 0.10 0.10 85 1004.7
20260506005501 26 192 1.6 12.9 0.10 0.10 0.10 85 1005.0
20260506005002 26 226 0.0 3.2 0.10 0.10 0.10 86 1005.1
20260506004501 26 228 0.0 3.2 0.10 0.10 0.10 85 1005.0
20260506004001 26 228 0.0 6.4 0.10 0.10 0.10 84 1005.1
20260506003001 27 255 1.6 8.0 0.05 0.05 0.05 82 1005.0
20260506002502 27 239 3.2 8.0 0.03 0.03 0.03 80 1005.0
20260506002001 27 194 3.2 12.9 0.00 0.00 0.00 80 1004.8
20260506001502 27 185 4.8 14.5 0.00 0.00 0.00 79 1004.8
20260506001002 28 183 4.8 14.5 0.00 0.00 0.00 79 1004.7
20260506000501 28 174 4.8 14.5 0.00 0.00 0.00 76 1004.2
20260506000002 28 169 4.8 11.3 0.00 0.00 0.00 76 1004.2
20260505235501 28 173 6.4 17.7 0.00 0.00 0.00 76 1003.9
20260505235001 28 174 6.4 19.3 0.00 0.00 0.00 75 1003.8
20260505234502 28 186 8.0 19.3 0.00 0.00 0.00 75 1004.0
20260505233002 30 181 8.0 19.3 0.00 0.00 0.00 73 1004.2
20260505232501 30 178 6.4 19.3 0.00 0.00 0.00 72 1004.0
20260505231502 30 185 4.8 14.5 0.00 0.00 0.00 71 1004.1
20260505231001 31 181 6.4 14.5 0.00 0.00 0.00 70 1004.1
20260505230502 31 187 8.0 16.1 0.00 0.00 0.00 69 1003.9
20260505230002 31 193 6.4 16.1 0.00 0.00 0.00 69 1003.9
20260505225501 31 186 6.4 17.7 0.00 0.00 0.00 69 1003.7
20260505225002 31 173 6.4 17.7 0.00 0.00 0.00 69 1003.9
20260505224502 31 172 6.4 19.3 0.00 0.00 0.00 69 1003.9
20260505224002 31 171 8.0 19.3 0.00 0.00 0.00 69 1003.7
20260505222502 31 190 6.4 20.9 0.00 0.00 0.00 69 1003.8
20260505222002 31 184 6.4 20.9 0.00 0.00 0.00 69 1003.8
20260505221502 31 183 8.0 20.9 0.00 0.00 0.00 68 1003.8
20260505221002 31 178 8.0 19.3 0.00 0.00 0.00 68 1003.6
20260505220502 31 183 6.4 17.7 0.00 0.00 0.00 68 1003.6
20260505220002 32 195 6.4 19.3 0.00 0.00 0.00 67 1003.7
20260505215502 31 191 8.0 19.3 0.00 0.00 0.00 67 1003.7
20260505215001 32 192 6.4 16.1 0.00 0.00 0.00 66 1003.7
20260505214502 32 195 6.4 16.1 0.00 0.00 0.00 67 1003.7
20260505214002 31 190 6.4 16.1 0.00 0.00 0.00 68 1003.8
20260505213501 31 179 6.4 17.7 0.00 0.00 0.00 67 1003.8
20260505213002 31 178 8.0 17.7 0.00 0.00 0.00 67 1003.8